1513188000.3,13844,6.19,72376.0,-15.61,-46.49,-46.27,0,*61
1513188001.55,13845,6.19,72378.5,-15.63,-46.55,-46.15,0,*6E
1513188002.8,13846,6.19,72374.5,-15.63,-46.35,-46.07,0,*68
1513188004.07,13847,6.19,72376.8,-15.61,-46.15,-45.67,0,*6C
1513188005.34,13848,6.19,72380.5,-15.63,-46.27,-45.81,0,*68
1513188006.59,13849,6.19,72376.0,-15.63,-46.27,-45.87,0,*6F
1513188007.85,13850,6.19,72372.3,-15.61,-45.47,-44.99,0,*6E
1513188009.11,13851,6.19,72364.0,-15.61,-45.87,-45.47,0,*61
1513188010.38,13852,6.19,72372.5,-15.63,-46.07,-45.81,0,*61
1513188011.62,13853,6.19,72390.8,-15.63,-46.07,-45.67,0,*68
1513188012.89,13854,6.19,72396.3,-15.63,-46.15,-45.81,0,*64
1513188014.11,13855,6.19,72400.0,-15.63,-46.35,-45.87,0,*61
1513188015.39,13856,6.19,72398.8,-15.63,-46.49,-46.07,0,*62
1513188016.66,13857,6.19,72386.8,-15.65,-46.41,-46.01,0,*6B
1513188017.93,13858,6.19,72386.8,-15.65,-46.61,-46.35,0,*61
1513188019.15,13859,6.19,72386.5,-15.63,-46.35,-45.87,0,*6D
1513188020.37,13860,6.19,72382.0,-15.63,-45.95,-45.61,0,*66
1513188021.61,13861,6.19,72374.5,-15.67,-45.67,-45.27,0,*6C
1513188022.87,13862,6.19,72376.0,-15.65,-45.47,-45.13,0,*68
1513188024.11,13863,6.13,72372.8,-15.65,-46.01,-45.67,0,*6B
1513188025.36,13864,6.19,72380.5,-15.65,-46.01,-45.67,0,*6C
1513188026.65,13865,6.19,72388.8,-15.65,-46.15,-45.73,0,*6D
1513188027.9,13866,6.19,72386.3,-15.65,-46.01,-45.67,0,*6E
1513188029.14,13867,6.19,72386.3,-15.65,-46.01,-45.67,0,*6F
1513188030.38,13868,6.19,72384.3,-15.65,-45.67,-45.33,0,*62
1513188031.65,13869,6.19,72380.3,-15.65,-45.67,-45.27,0,*66
1513188032.89,13870,6.19,72374.5,-15.65,-45.53,-45.13,0,*6E
1513188034.15,13871,6.19,72382.3,-15.65,-45.95,-45.47,0,*64
1513188035.4,13872,6.19,72380.8,-15.63,-46.07,-45.61,0,*6D
1513188036.66,13873,6.19,72386.0,-15.63,-45.81,-45.27,0,*63
1513188037.9,13874,6.19,72390.0,-15.63,-45.67,-45.27,0,*6C
1513188039.12,13875,6.19,72388.0,-15.63,-45.67,-45.21,0,*6B
1513188040.36,13876,6.19,72394.5,-15.63,-46.07,-45.67,0,*6F
1513188041.57,13877,6.19,72398.0,-15.63,-45.95,-45.67,0,*66
1513188042.8,13878,6.19,72392.8,-15.63,-45.95,-45.47,0,*6B
1513188044.05,13879,6.19,72392.8,-15.63,-46.15,-45.67,0,*63
1513188045.26,13880,6.19,72392.3,-15.63,-45.95,-45.67,0,*6E
1513188046.47,13881,6.19,72394.8,-15.63,-45.95,-45.67,0,*6F
1513188047.72,13882,6.19,72394.0,-15.65,-46.35,-45.95,0,*6E
1513188048.97,13883,6.19,72392.8,-15.65,-46.35,-46.01,0,*61
1513188050.22,13884,6.19,72392.3,-15.65,-45.95,-45.67,0,*6C
1513188051.46,13885,6.19,72388.3,-15.65,-46.01,-45.53,0,*64
1513188052.7,13886,6.19,72386.5,-15.65,-45.95,-45.67,0,*6E
1513188053.98,13887,6.19,72386.8,-15.65,-46.15,-45.87,0,*6A
1513188055.25,13888,6.19,72388.3,-15.65,-46.15,-45.67,0,*6B
1513188056.49,13889,6.19,72390.3,-15.65,-45.95,-45.67,0,*61
1513188057.78,13890,6.19,72388.8,-15.65,-46.15,-45.73,0,*67
1513188059.03,13891,6.13,72386.3,-15.65,-46.01,-45.67,0,*66
1513188060.32,13892,6.13,72384.5,-15.65,-46.15,-45.73,0,*65
1513188061.59,13893,6.13,72386.0,-15.65,-45.95,-45.73,0,*6F
1513188062.81,13894,6.19,72388.5,-15.67,-45.95,-45.53,0,*68
1513188064.04,13895,6.19,72390.8,-15.65,-45.87,-45.67,0,*6F
1513188065.3,13896,6.19,72392.5,-15.67,-45.73,-45.47,0,*67
1513188066.57,13897,6.13,72398.5,-15.65,-45.95,-45.47,0,*6C
1513188067.83,13898,6.19,72402.5,-15.65,-45.73,-45.53,0,*6E
1513188069.07,13899,6.19,72394.8,-15.67,-46.15,-45.67,0,*69
1513188070.32,13900,6.19,72398.5,-15.67,-46.15,-45.67,0,*68
1513188071.56,13901,6.19,72394.3,-15.65,-45.67,-45.33,0,*6C
1513188072.86,13902,6.19,72392.3,-15.65,-44.93,-44.73,0,*60
1513188074.12,13903,6.13,72374.0,-15.65,-45.67,-45.27,0,*6B
1513188075.37,13904,6.19,72380.8,-15.65,-46.01,-45.53,0,*6C
1513188076.64,13905,6.19,72386.3,-15.65,-46.01,-45.73,0,*6F
1513188077.86,13906,6.19,72390.5,-15.67,-46.21,-45.87,0,*67
1513188079.11,13907,6.19,72388.0,-15.65,-46.35,-45.95,0,*62
1513188080.39,13908,6.19,72382.8,-15.65,-46.35,-46.15,0,*66
1513188081.64,13909,6.19,72386.8,-15.67,-46.35,-46.15,0,*65
1513188082.86,13910,6.13,72382.0,-15.67,-46.35,-45.95,0,*66
1513188084.07,13911,6.13,72380.3,-15.67,-46.21,-45.87,0,*61
1513188085.31,13912,6.19,72382.0,-15.65,-45.95,-45.67,0,*62
1513188086.61,13913,6.19,72376.8,-15.65,-46.15,-45.73,0,*6D
1513188087.83,13914,6.19,72372.8,-15.67,-46.35,-45.95,0,*62
1513188089.04,13915,6.19,72370.0,-15.67,-45.95,-45.67,0,*67
1513188090.31,13916,6.13,72372.3,-15.67,-46.15,-45.73,0,*6A
1513188091.57,13917,6.19,72390.0,-15.65,-46.35,-46.01,0,*6D
1513188092.83,13918,6.13,72382.0,-15.65,-45.67,-45.47,0,*67
1513188094.07,13919,6.19,72380.8,-15.67,-45.47,-45.13,0,*67
1513188095.29,13920,6.19,72374.8,-15.67,-45.87,-45.53,0,*65
1513188096.51,13921,6.13,72364.5,-15.67,-46.01,-45.53,0,*69
1513188097.76,13922,6.13,72372.5,-15.67,-45.73,-45.47,0,*69
1513188099.07,13923,6.19,72374.8,-15.65,-45.27,-44.93,0,*63
1513188100.31,13924,6.19,72382.5,-15.65,-45.67,-45.33,0,*6B
1513188101.58,13925,6.19,72380.5,-15.65,-45.73,-45.53,0,*69
1513188102.82,13926,6.19,72376.3,-15.67,-45.53,-45.27,0,*69
1513188104.09,13927,6.13,72378.8,-15.65,-45.53,-45.27,0,*6A
1513188105.34,13928,6.19,72384.5,-15.65,-46.01,-45.87,0,*6B
1513188106.59,13929,6.13,72388.3,-15.65,-46.01,-45.53,0,*63
1513188107.86,13930,6.13,72392.8,-15.65,-45.67,-45.27,0,*6B
1513188109.09,13931,6.13,72388.3,-15.63,-45.67,-45.47,0,*6A
1513188110.36,13932,6.19,72398.3,-15.65,-45.87,-45.47,0,*61
1513188111.6,13933,6.13,72390.8,-15.65,-45.95,-45.53,0,*66
1513188112.84,13934,6.19,72384.5,-15.65,-46.01,-45.67,0,*68
1513188114.11,13935,6.13,72370.0,-15.65,-45.73,-45.33,0,*6E
1513188115.36,13936,6.19,72374.0,-15.65,-45.33,-45.07,0,*6E
1513188116.62,13937,6.13,72364.5,-15.63,-45.27,-44.87,0,*65
1513188117.86,13938,6.19,72374.3,-15.61,-44.99,-44.41,0,*66
1513188119.1,13939,6.19,72382.3,-15.61,-44.87,-44.61,0,*6A
1513188120.32,13940,6.19,72382.3,-15.63,-45.21,-44.79,0,*62
1513188121.61,13941,6.13,72384.3,-15.61,-45.47,-45.07,0,*69
1513188122.86,13942,6.19,72392.8,-15.61,-44.87,-44.41,0,*64
1513188124.06,13943,6.19,72378.3,-15.59,-45.13,-44.41,0,*62
1513188125.27,13944,6.13,72382.3,-15.59,-44.99,-44.61,0,*64
1513188126.52,13945,6.13,72378.8,-15.57,-43.95,-43.49,0,*6D
1513188127.75,13946,6.13,72376.0,-15.59,-44.61,-44.13,0,*64
1513188128.99,13947,6.19,72384.5,-15.57,-45.53,-44.99,0,*69
1513188130.24,13948,6.13,72388.5,-15.57,-46.01,-45.53,0,*65
1513188131.51,13949,6.19,72394.5,-15.57,-46.07,-45.53,0,*62
1513188132.75,13950,6.19,72386.8,-15.57,-45.61,-45.21,0,*6C
1513188133.99,13951,6.19,72380.8,-15.57,-45.53,-45.13,0,*6D
1513188135.22,13952,6.19,72382.0,-15.57,-45.87,-45.41,0,*60
1513188136.46,13953,6.19,72370.0,-15.57,-45.87,-45.41,0,*61
1513188137.73,13954,6.13,72374.8,-15.57,-46.07,-45.53,0,*6E
1513188138.99,13955,6.13,72376.3,-15.57,-46.07,-45.53,0,*6F
1513188140.23,13956,6.19,72370.3,-15.59,-45.81,-45.53,0,*6F
1513188141.47,13957,6.13,72374.5,-15.57,-45.53,-45.21,0,*6A
1513188142.71,13958,6.13,72368.3,-15.57,-45.41,-44.99,0,*64
1513188144.0,13959,6.13,72364.8,-15.57,-44.73,-44.33,0,*65
1513188145.21,13960,6.13,72376.0,-15.59,-44.99,-44.61,0,*62
1513188146.44,13961,6.13,72376.8,-15.57,-45.33,-44.99,0,*6B
1513188147.65,13962,6.13,72372.0,-15.59,-45.61,-45.33,0,*60
1513188148.86,13963,6.19,72374.3,-15.59,-46.01,-45.41,0,*61
1513188150.1,13964,6.13,72376.8,-15.57,-46.01,-45.41,0,*68
1513188151.36,13965,6.13,72380.3,-15.57,-45.81,-45.13,0,*65
1513188152.57,13966,6.13,72386.3,-15.59,-45.53,-44.79,0,*6A
1513188153.84,13967,6.19,72386.8,-15.57,-44.93,-44.27,0,*63
1513188155.11,13968,6.19,72390.5,-15.57,-44.93,-44.27,0,*6C
1513188156.35,13969,6.19,72392.5,-15.59,-44.73,-44.27,0,*6D
1513188157.58,13970,6.19,72392.3,-15.59,-45.13,-44.73,0,*63
1513188158.82,13971,6.13,72386.0,-15.57,-45.61,-45.21,0,*6F
1513188160.08,13972,6.13,72382.5,-15.57,-45.73,-45.41,0,*69
1513188161.32,13973,6.13,72384.0,-15.57,-45.21,-45.13,0,*68
1513188162.57,13974,6.13,72384.3,-15.57,-44.79,-44.41,0,*65
1513188163.83,13975,6.13,72384.5,-15.57,-44.73,-44.61,0,*6C
1513188165.13,13976,6.13,72382.3,-15.57,-44.73,-44.33,0,*68
1513188166.37,13977,6.13,72382.3,-15.57,-44.79,-44.41,0,*66
1513188167.6,13978,6.13,72384.5,-15.57,-45.33,-44.79,0,*6D
1513188168.87,13979,6.13,72382.3,-15.57,-45.13,-44.73,0,*64
1513188170.08,13980,6.13,72382.3,-15.59,-45.53,-44.99,0,*6C
1513188171.32,13981,6.13,72382.8,-15.57,-45.53,-45.13,0,*60
1513188172.54,13982,6.13,72386.5,-15.59,-45.73,-45.41,0,*68
1513188173.78,13983,6.13,72386.8,-15.59,-45.81,-45.61,0,*66
1513188175.04,13984,6.13,72386.8,-15.61,-46.07,-45.67,0,*61
1513188176.34,13985,6.13,72384.0,-15.61,-46.27,-46.07,0,*67
1513188177.56,13986,6.13,72378.3,-15.63,-46.35,-45.95,0,*6D
1513188178.83,13987,6.19,72384.5,-15.61,-45.95,-45.81,0,*62
1513188180.06,13988,6.13,72378.3,-15.63,-45.95,-45.47,0,*65
1513188181.31,13989,6.19,72374.0,-15.61,-45.67,-45.61,0,*6F
1513188182.56,13990,6.19,72370.0,-15.61,-45.41,-45.07,0,*63
1513188183.82,13991,6.13,72372.0,-15.63,-45.81,-45.47,0,*68
1513188185.09,13992,6.13,72372.5,-15.61,-46.07,-45.67,0,*66
1513188186.38,13993,6.13,72370.8,-15.61,-46.15,-45.81,0,*6C
1513188187.68,13994,6.13,72366.8,-15.61,-45.27,-45.07,0,*67
1513188188.96,13995,6.13,72358.8,-15.61,-45.81,-45.47,0,*6E
1513188190.18,13996,6.13,72356.8,-15.63,-45.95,-45.61,0,*6E
1513188191.4,13997,6.13,72356.8,-15.63,-45.95,-45.61,0,*6F
1513188192.63,13998,6.13,72360.5,-15.61,-45.95,-45.67,0,*64
1513188193.87,13999,6.13,72364.5,-15.63,-45.81,-45.61,0,*64
1513188195.09,14000,6.13,72366.0,-15.63,-45.67,-45.41,0,*60
1513188196.32,14001,6.13,72376.0,-15.61,-45.67,-45.41,0,*63
1513188197.54,14002,6.13,72376.3,-15.63,-45.61,-45.21,0,*62
1513188198.83,14003,6.13,72364.5,-15.61,-45.47,-45.27,0,*63
1513188200.1,14004,6.13,72362.3,-15.61,-45.61,-45.27,0,*60
1513188201.32,14005,6.13,72360.0,-15.63,-45.21,-44.99,0,*63
1513188202.56,14006,6.13,72356.3,-15.61,-45.21,-44.79,0,*6C
1513188203.8,14007,6.13,72354.0,-15.61,-45.21,-44.87,0,*6C
1513188205.08,14008,6.13,72348.8,-15.61,-45.27,-44.99,0,*6A
1513188206.31,14009,6.13,72352.5,-15.59,-45.81,-45.41,0,*68
1513188207.51,14010,6.13,72362.8,-15.59,-45.87,-45.41,0,*66
1513188208.72,14011,6.13,72364.5,-15.59,-45.13,-44.61,0,*69
1513188209.93,14012,6.13,72364.8,-15.59,-44.79,-44.41,0,*65
1513188211.14,14013,6.13,72372.5,-15.59,-45.33,-44.99,0,*6E
1513188212.37,14014,6.13,72378.5,-15.57,-45.41,-45.21,0,*60
1513188213.61,14015,6.13,72376.3,-15.57,-45.87,-45.53,0,*6E
1513188214.87,14016,6.13,72372.8,-15.59,-46.07,-45.73,0,*6A
1513188216.11,14017,6.13,72376.0,-15.59,-46.21,-45.81,0,*62
1513188217.35,14018,6.13,72372.8,-15.59,-46.21,-45.81,0,*6D
1513188218.58,14019,6.13,72376.0,-15.59,-46.21,-45.81,0,*6C
1513188219.8,14020,6.13,72374.3,-15.59,-46.01,-45.61,0,*6A
1513188221.06,14021,6.13,72372.5,-15.59,-46.07,-45.81,0,*63
1513188222.3,14022,6.13,72378.5,-15.59,-46.41,-45.87,0,*64
1513188223.53,14023,6.13,72376.8,-15.59,-46.41,-46.01,0,*68
1513188224.8,14024,6.13,72378.8,-15.61,-46.55,-46.27,0,*65
1513188226.1,14025,6.13,72382.0,-15.61,-46.49,-46.15,0,*68
1513188227.35,14026,6.13,72386.8,-15.61,-46.35,-45.95,0,*6B
1513188228.62,14027,6.13,72386.5,-15.63,-46.49,-46.27,0,*69
1513188229.9,14028,6.13,72386.3,-15.63,-46.27,-45.81,0,*61
1513188231.14,14029,6.13,72394.5,-15.63,-46.15,-45.67,0,*69
1513188232.42,14030,6.13,72390.0,-15.65,-46.35,-46.15,0,*63
1513188233.67,14031,6.13,72388.5,-15.65,-46.35,-45.95,0,*69
1513188234.96,14032,6.13,72384.5,-15.65,-46.15,-45.73,0,*60
1513188236.21,14033,6.13,72392.8,-15.65,-46.35,-45.95,0,*6B
1513188237.47,14034,6.13,72388.8,-15.65,-46.41,-45.95,0,*6F
1513188238.72,14035,6.13,72394.3,-15.65,-46.01,-45.67,0,*67
1513188239.95,14036,6.13,72402.3,-15.63,-45.87,-45.47,0,*6D
1513188241.19,14037,6.13,72396.5,-15.63,-46.07,-45.67,0,*65
1513188242.47,14038,6.13,72388.3,-15.63,-46.27,-45.81,0,*60
1513188243.71,14039,6.13,72388.0,-15.65,-45.95,-45.53,0,*62
1513188244.95,14040,6.13,72384.3,-15.65,-46.21,-45.95,0,*6A
1513188246.23,14041,6.13,72382.0,-15.65,-46.41,-46.01,0,*63
1513188247.52,14042,6.13,72384.5,-15.65,-46.41,-46.15,0,*65
1513188248.82,14043,6.13,72390.8,-15.65,-46.41,-46.15,0,*64
1513188250.07,14044,6.13,72386.8,-15.65,-46.55,-46.21,0,*61
1513188251.31,14045,6.13,72394.8,-15.65,-46.55,-46.21,0,*60
1513188252.53,14046,6.13,72398.0,-15.67,-46.35,-45.95,0,*6B
1513188253.8,14047,6.13,72384.8,-15.65,-45.73,-45.53,0,*63
1513188255.05,14048,6.13,72376.0,-15.67,-45.73,-45.47,0,*6B
1513188256.27,14049,6.13,72376.0,-15.67,-45.53,-45.13,0,*69
1513188257.49,14050,6.13,72380.0,-15.67,-45.95,-45.53,0,*6F
1513188258.73,14051,6.13,72384.0,-15.65,-46.21,-45.95,0,*6A
1513188259.97,14052,6.13,72394.3,-15.65,-46.21,-45.95,0,*69
1513188261.2,14053,6.13,72394.5,-15.67,-46.35,-46.01,0,*61
1513188262.45,14054,6.13,72388.8,-15.67,-46.55,-46.15,0,*65
1513188263.73,14055,6.13,72388.0,-15.65,-46.55,-46.15,0,*66
1513188265.0,14056,6.13,72394.0,-15.67,-46.41,-46.15,0,*62
1513188266.24,14057,6.13,72394.8,-15.67,-46.61,-46.21,0,*66
1513188267.48,14058,6.13,72396.5,-15.67,-46.61,-46.21,0,*69
1513188268.73,14059,6.13,72396.3,-15.67,-46.61,-46.35,0,*6D
1513188270.01,14060,6.13,72394.5,-15.69,-46.83,-46.49,0,*6E
1513188271.31,14061,6.13,72390.5,-15.69,-46.61,-46.49,0,*63
1513188272.57,14062,6.13,72390.3,-15.71,-46.61,-46.41,0,*61
1513188273.82,14063,6.13,72394.3,-15.71,-46.83,-46.41,0,*6C
1513188275.09,14064,6.13,72392.8,-15.71,-46.69,-46.49,0,*67
1513188276.36,14065,6.13,72392.0,-15.71,-46.69,-46.41,0,*6E
1513188277.61,14066,6.13,72392.0,-15.71,-46.49,-46.01,0,*6B
1513188278.86,14067,6.13,72396.8,-15.71,-46.49,-46.21,0,*68
1513188280.1,14068,6.13,72398.5,-15.71,-46.61,-46.21,0,*6D
1513188281.38,14069,6.13,72394.0,-15.71,-46.61,-46.27,0,*6A
1513188282.64,14070,6.13,72394.8,-15.71,-46.69,-46.41,0,*6A
1513188283.91,14071,6.13,72392.8,-15.75,-46.69,-46.27,0,*6F
1513188285.19,14072,6.13,72394.8,-15.73,-46.49,-46.01,0,*6C
1513188286.49,14073,6.13,72386.8,-15.73,-46.49,-46.15,0,*68
1513188287.79,14074,6.13,72388.5,-15.73,-46.69,-46.27,0,*6C
1513188289.04,14075,6.13,72390.5,-15.73,-46.35,-46.01,0,*60
1513188290.32,14076,6.13,72386.5,-15.73,-46.55,-46.15,0,*60
1513188291.59,14077,6.13,72386.3,-15.75,-46.89,-46.49,0,*6F
1513188292.87,14078,6.13,72388.8,-15.75,-46.89,-46.49,0,*60
1513188294.13,14079,6.13,72384.8,-15.75,-46.69,-46.27,0,*67
1513188295.44,14080,6.13,72390.3,-15.77,-46.49,-46.07,0,*63
1513188296.73,14081,6.13,72386.5,-15.77,-46.49,-46.07,0,*62
1513188298.03,14082,6.13,72386.3,-15.77,-46.49,-46.07,0,*61
1513188299.33,14083,6.13,72390.3,-15.77,-46.69,-46.27,0,*60
1513188300.6,14084,6.13,72388.3,-15.77,-46.55,-46.07,0,*6A
1513188301.9,14085,6.13,72386.8,-15.77,-46.49,-46.07,0,*66
1513188303.19,14086,6.13,72384.5,-15.81,-46.41,-46.15,0,*67
1513188304.44,14087,6.13,72382.8,-15.77,-45.61,-45.21,0,*6A
1513188305.72,14088,6.13,72378.3,-15.77,-45.81,-45.27,0,*6D
1513188306.96,14089,6.13,72380.3,-15.77,-45.67,-45.21,0,*62
1513188308.18,14090,6.13,72398.8,-15.75,-46.01,-45.41,0,*6D
1513188309.42,14091,6.13,72400.5,-15.75,-46.07,-45.67,0,*6E
1513188310.66,14092,6.13,72398.0,-15.75,-46.27,-45.87,0,*61
1513188311.87,14093,6.13,72392.8,-15.75,-46.01,-45.67,0,*6A
1513188313.1,14094,6.13,72390.0,-15.75,-46.35,-46.01,0,*69
1513188314.34,14095,6.13,72388.3,-15.75,-46.27,-45.87,0,*66
1513188315.59,14096,6.13,72394.0,-15.75,-46.27,-45.87,0,*65
1513188316.86,14097,6.13,72396.3,-15.77,-46.49,-46.01,0,*63
1513188318.13,14098,6.13,72396.5,-15.77,-46.55,-46.27,0,*65
1513188319.41,14099,6.13,72400.8,-15.77,-46.55,-46.15,0,*65
1513188320.7,14100,6.13,72398.8,-15.77,-46.07,-45.47,0,*67
1513188321.96,14101,6.13,72394.5,-15.77,-45.67,-45.27,0,*65
1513188323.21,14102,6.13,72402.8,-15.77,-46.01,-45.61,0,*67
1513188324.5,14103,6.13,72402.5,-15.77,-46.27,-45.81,0,*6C
1513188325.76,14104,6.13,72396.3,-15.77,-45.87,-45.47,0,*68
1513188327.06,14105,6.13,72398.0,-15.77,-46.27,-45.81,0,*6A
1513188328.3,14106,6.13,72398.0,-15.77,-45.41,-44.79,0,*6C
1513188329.51,14107,6.13,72396.0,-15.75,-45.87,-45.61,0,*6D
1513188330.77,14108,6.13,72396.0,-15.75,-45.81,-45.27,0,*66
1513188332.0,14109,6.13,72402.0,-15.75,-45.67,-45.27,0,*6F
1513188333.27,14110,6.13,72406.0,-15.73,-45.87,-45.47,0,*69
1513188334.55,14111,6.13,72400.3,-15.73,-45.47,-45.07,0,*60
1513188335.79,14112,6.13,72408.8,-15.75,-46.07,-45.67,0,*64
1513188337.09,14113,6.13,72400.8,-15.73,-46.27,-45.81,0,*69
1513188338.31,14114,6.13,72402.0,-15.75,-46.01,-45.67,0,*64
1513188339.52,14115,6.13,72402.8,-15.75,-46.01,-45.67,0,*65
1513188340.79,14116,6.13,72400.3,-15.75,-46.27,-45.81,0,*6A
1513188342.04,14117,6.13,72398.0,-15.73,-46.01,-45.61,0,*67
1513188343.28,14118,6.13,72400.3,-15.75,-46.01,-45.47,0,*6A
1513188344.51,14119,6.13,72398.8,-15.75,-46.07,-45.67,0,*6F
1513188345.76,14120,6.13,72394.5,-15.75,-46.07,-45.61,0,*63
1513188347.02,14121,6.13,72392.0,-15.73,-45.81,-45.41,0,*6B
1513188348.26,14122,6.13,72388.0,-15.73,-45.87,-45.61,0,*6C
1513188349.5,14123,6.13,72384.0,-15.73,-45.87,-45.41,0,*6F
1513188350.77,14124,6.13,72380.8,-15.73,-46.15,-45.67,0,*64
1513188352.01,14125,6.13,72378.3,-15.73,-45.67,-45.21,0,*61
1513188353.25,14126,6.13,72370.3,-15.73,-46.01,-45.67,0,*63
1513188354.53,14127,6.13,72364.5,-15.73,-46.07,-45.61,0,*62
1513188355.77,14128,6.13,72364.0,-15.75,-46.01,-45.47,0,*69
1513188357.04,14129,6.13,72370.3,-15.73,-46.27,-45.67,0,*68
1513188358.28,14130,6.13,72378.3,-15.75,-46.49,-45.87,0,*60
1513188359.56,14131,6.13,72388.0,-15.73,-46.49,-46.01,0,*6A
1513188360.83,14132,6.13,72380.5,-15.73,-46.35,-45.81,0,*69
1513188362.13,14133,6.13,72370.5,-15.73,-46.15,-45.81,0,*6A
1513188363.4,14134,6.13,72376.3,-15.73,-46.07,-45.67,0,*66
1513188364.67,14135,6.13,72374.3,-15.73,-46.35,-45.81,0,*6E
1513188365.95,14136,6.13,72384.3,-15.75,-46.49,-46.07,0,*6D
1513188367.22,14137,6.13,72376.0,-15.75,-46.49,-46.15,0,*6F
1513188368.44,14138,6.13,72382.8,-15.75,-46.55,-46.01,0,*68
1513188369.66,14139,6.13,72372.8,-15.75,-46.55,-46.01,0,*69
1513188370.9,14140,6.13,72372.5,-15.75,-46.15,-45.67,0,*60
1513188372.14,14141,6.13,72374.5,-15.73,-45.87,-45.41,0,*6B
1513188373.36,14142,6.13,72374.3,-15.75,-46.01,-45.61,0,*61
1513188374.6,14143,6.13,72378.0,-15.75,-45.81,-45.21,0,*6F
1513188375.83,14144,6.13,72378.8,-15.75,-45.67,-45.27,0,*66
1513188377.07,14145,6.13,72380.3,-15.73,-45.87,-45.41,0,*6F
1513188378.33,14146,6.13,72386.0,-15.73,-45.87,-45.47,0,*6A
1513188379.57,14147,6.13,72386.0,-15.75,-46.15,-45.67,0,*67
1513188380.84,14148,6.13,72390.5,-15.73,-46.27,-45.67,0,*6F
1513188382.08,14149,6.13,72394.8,-15.75,-46.01,-45.47,0,*6E
1513188383.35,14150,6.13,72392.5,-15.73,-46.15,-45.67,0,*67
1513188384.56,14151,6.13,72398.5,-15.75,-45.67,-45.41,0,*62
1513188385.81,14152,6.13,72394.5,-15.73,-46.35,-45.87,0,*69
1513188387.06,14153,6.13,72384.8,-15.75,-46.35,-45.81,0,*68
1513188388.3,14154,6.06,72396.5,-15.73,-46.35,-45.87,0,*6F
1513188389.53,14155,6.13,72400.5,-15.75,-46.55,-46.01,0,*63
1513188390.8,14156,6.13,72396.8,-15.73,-46.49,-45.87,0,*66
1513188392.07,14157,6.13,72396.5,-15.75,-46.15,-45.81,0,*6E
1513188393.32,14158,6.13,72400.5,-15.75,-46.49,-46.01,0,*63
1513188394.62,14159,6.13,72392.3,-15.73,-46.49,-46.15,0,*61
1513188395.87,14160,6.13,72390.8,-15.75,-46.35,-45.81,0,*68
1513188397.14,14161,6.13,72388.3,-15.75,-46.27,-45.81,0,*6A
1513188398.41,14162,6.13,72392.0,-15.73,-46.27,-45.87,0,*69
1513188399.63,14163,6.13,72392.5,-15.75,-46.35,-45.87,0,*6D
1513188400.84,14164,6.13,72396.8,-15.75,-45.87,-45.61,0,*68
1513188402.05,14165,6.13,72396.5,-15.75,-45.87,-45.41,0,*6B
1513188403.28,14166,6.13,72396.0,-15.75,-45.81,-45.41,0,*6E
1513188404.52,14167,6.13,72394.8,-15.75,-45.67,-45.27,0,*67
1513188405.75,14168,6.13,72394.0,-15.75,-45.87,-45.47,0,*60
1513188407.02,14169,6.13,72396.0,-15.75,-46.15,-45.81,0,*63
1513188408.29,14170,6.06,72392.3,-15.73,-46.07,-45.61,0,*60
1513188409.56,14171,6.13,72394.8,-15.73,-45.87,-45.47,0,*6E
1513188410.76,14172,6.13,72392.0,-15.75,-45.87,-45.41,0,*6D
1513188412.01,14173,6.13,72394.5,-15.73,-45.67,-45.21,0,*62
1513188413.27,14174,6.13,72394.0,-15.73,-45.81,-45.41,0,*6B
1513188414.51,14175,6.13,72392.0,-15.75,-46.15,-45.67,0,*66
1513188415.75,14176,6.13,72394.0,-15.75,-46.07,-45.61,0,*60
1513188417.02,14177,6.13,72396.8,-15.73,-46.15,-45.67,0,*62
1513188418.29,14178,6.13,72398.0,-15.73,-46.15,-45.67,0,*6D
1513188419.59,14179,6.13,72398.5,-15.73,-46.15,-45.81,0,*64
1513188420.83,14180,6.13,72400.3,-15.73,-45.87,-45.41,0,*66
1513188422.07,14181,6.13,72398.8,-15.73,-45.87,-45.41,0,*67
1513188423.34,14182,6.13,72398.3,-15.73,-45.67,-45.27,0,*6A
1513188424.6,14183,6.06,72392.5,-15.73,-45.67,-45.27,0,*6B
1513188425.87,14184,6.06,72394.0,-15.73,-46.07,-45.41,0,*69
1513188427.12,14185,6.13,72402.0,-15.73,-46.01,-45.61,0,*6C
1513188428.39,14186,6.13,72406.8,-15.73,-46.49,-45.87,0,*6B
1513188429.66,14187,6.13,72400.5,-15.73,-46.35,-45.81,0,*67
1513188430.87,14188,6.13,72402.8,-15.75,-45.67,-45.41,0,*66
1513188432.17,14189,6.13,72404.3,-15.73,-46.27,-45.81,0,*6A
1513188433.45,14190,6.13,72404.5,-15.73,-46.49,-45.87,0,*6C
1513188434.75,14191,6.13,72402.3,-15.73,-46.49,-46.07,0,*66
1513188435.98,14192,6.13,72400.3,-15.75,-46.07,-45.67,0,*6C
1513188437.23,14193,6.13,72402.3,-15.73,-45.87,-45.61,0,*66
1513188438.5,14194,6.13,72406.5,-15.73,-46.49,-45.87,0,*68
1513188439.77,14195,6.06,72400.0,-15.75,-46.15,-45.81,0,*60
1513188441.04,14196,6.13,72400.3,-15.73,-46.01,-45.47,0,*6A
1513188442.28,14197,6.13,72406.8,-15.75,-46.01,-45.47,0,*6D
1513188443.55,14198,6.13,72406.3,-15.75,-46.27,-45.81,0,*6C
1513188444.77,14199,6.13,72410.8,-15.75,-46.35,-45.87,0,*68
1513188446.04,14200,6.13,72406.5,-15.73,-46.15,-45.67,0,*61
1513188447.27,14201,6.13,72404.5,-15.75,-46.07,-45.67,0,*65
1513188448.51,14202,6.13,72404.3,-15.75,-46.07,-45.67,0,*66
1513188449.77,14203,6.13,72396.8,-15.73,-45.81,-45.41,0,*68
1513188451.01,14204,6.06,72394.8,-15.75,-45.47,-44.99,0,*67
1513188452.22,14205,6.13,72394.5,-15.75,-45.61,-45.21,0,*60
1513188453.49,14206,6.13,72388.8,-15.73,-46.07,-45.61,0,*62
1513188454.76,14207,6.13,72384.8,-15.73,-45.87,-45.47,0,*6C
1513188455.97,14208,6.13,72374.0,-15.75,-46.01,-45.61,0,*6C
1513188457.21,14209,6.13,72372.5,-15.75,-45.87,-45.47,0,*64
1513188458.45,14210,6.13,72372.8,-15.75,-46.27,-45.67,0,*67
1513188459.72,14211,6.06,72370.8,-15.73,-46.35,-45.81,0,*6B
1513188460.96,14212,6.06,72368.8,-15.75,-45.47,-44.99,0,*60
1513188462.19,14213,6.06,72382.3,-15.75,-45.47,-45.21,0,*63
1513188463.43,14214,6.06,72390.5,-15.75,-45.67,-45.07,0,*62
1513188464.67,14215,6.06,72392.0,-15.75,-45.61,-45.27,0,*67
1513188465.9,14216,6.06,72398.8,-15.75,-45.81,-45.41,0,*6A
1513188467.13,14217,6.13,72400.8,-15.75,-45.81,-45.21,0,*6D
1513188468.35,14218,6.13,72404.0,-15.75,-44.99,-44.61,0,*6F
1513188469.6,14219,6.06,72396.8,-15.71,-44.07,-43.67,0,*6C
1513188470.86,14220,6.06,72386.0,-15.71,-44.93,-44.33,0,*6D
1513188472.13,14221,6.06,72382.5,-15.69,-44.61,-44.13,0,*6A
1513188473.42,14222,6.13,72360.8,-15.69,-44.93,-44.47,0,*65
1513188474.66,14223,6.13,72352.3,-15.69,-45.41,-45.13,0,*6A
1513188475.9,14224,6.06,72332.8,-15.69,-45.53,-45.13,0,*6E
1513188477.14,14225,6.13,72334.3,-15.69,-45.13,-44.61,0,*6F
1513188478.38,14226,6.06,72332.3,-15.69,-45.41,-44.99,0,*6C
1513188479.64,14227,6.06,72326.0,-15.69,-45.73,-45.33,0,*6D
1513188480.87,14228,6.13,72328.8,-15.71,-45.73,-45.33,0,*6B
1513188482.12,14229,6.06,72338.0,-15.69,-45.53,-45.13,0,*63
1513188483.38,14230,6.06,72350.0,-15.69,-45.81,-45.41,0,*63
1513188484.64,14231,6.06,72344.3,-15.69,-45.81,-45.41,0,*62
1513188485.92,14232,6.06,72346.3,-15.69,-45.53,-44.93,0,*60
1513188487.16,14233,6.13,72356.5,-15.69,-45.61,-44.99,0,*6A
1513188488.42,14234,6.13,72358.8,-15.69,-45.81,-45.21,0,*61
1513188489.66,14235,6.06,72356.5,-15.69,-45.53,-45.13,0,*6E
1513188490.9,14236,6.06,72356.0,-15.69,-45.61,-45.13,0,*6C
1513188492.16,14237,6.13,72356.5,-15.69,-45.73,-45.33,0,*6C
1513188493.4,14238,6.06,72354.0,-15.67,-45.67,-45.27,0,*6D
1513188494.64,14239,6.06,72354.8,-15.67,-45.67,-45.27,0,*6C
1513188495.91,14240,6.06,72354.8,-15.67,-45.07,-44.67,0,*61
1513188497.18,14241,6.06,72360.3,-15.67,-45.27,-44.73,0,*67
1513188498.42,14242,6.06,72360.0,-15.67,-45.67,-45.27,0,*60
1513188499.65,14243,6.06,72350.0,-15.67,-45.13,-44.67,0,*67